星链-35928(STARLINK-35928)

导读 | 豆包AI

STARLINK-35928是美国太空探索技术公司(SpaceX)星链互联网卫星星座的一员,星链旨在为全球提供高速低延迟宽带互联网服务。该卫星于2025年11月19日发射升空,承担着扩展星链星座全球网络覆盖、提升星座通信容量与服务能力的任务,进一步推动星链星座的部署进程。

基本信息
目录编号:
66528
目录名称:
STARLINK-35928
国际标识:
2025-265N
轨道中心:
EARTH
卫星名称:
星链-35928
卫星全名:
星链-35928(STARLINK-35928)
卫星状态:
在轨 (已飞行161 天)
发射日期:
2025-11-19 UTC
国别 :
美国 (US)
星等 :
--
轨道信息
数据来源 国际轨道数据
星历时间: 2026-04-28T16:56:20+0800
18小时前
查看轨道信息
半长轴: 6861.179km
偏心率: 0.0001365
轨道倾角: 43.006°
近地点辐角 268.038°
升交点赤经 357.187°
平近点角 92.031°
近地点: 482.105km
远地点: 483.979km
周期: 94.267分钟
每日圈数: 15.275825
详细信息
固有亮度:
5
最大亮度:
2.5
卫星平台:
Starlink V1.0
覆盖范围:
全球
运营商:
太空探索技术公司
运营商所在国:
美国
制造商(研发单位):
太空探索技术公司
制造商所在国:
美国
使用方式:
暂无
卫星简介
Starlink 计划是 SpaceX 推出的全球卫星互联网项目,通过发射低轨道卫星,为全球尤其是偏远地区提供高速、低延迟的互联网服务。自 2019 年起,Starlink 已部署数千颗卫星,旨在缩小全球数字鸿沟,推动互联网普及。该项目还为军事、航空等行业提供通信支持,带来广泛经济效益。
2D轨道图
3D轨道图
轨道高度分析图
轨道倾角分析图
轨道综合分析图
查看轨道综合分析图